Tracking 35331 objects as of 15-Sep-2026
HD Live streaming from Space Station
objects crossing your sky now

TITAN 3C TRANSTAGE DEB


TITAN 3C TRANSTAGE DEB is no longer on orbit


NORAD ID: 1925
Int'l Code: 1965-082GK
Launch date: October 15, 1965
Source: United States (US)
Launch site: AIR FORCE EASTERN TEST RANGE (AFETR)
Decay date: 1967-10-15

Note: This is SATELLITE DEBRIS
Your satellite tracking list
Your tracking list is empty




NASA's NSSDC Master Catalog

Two Line Element Set (TLE):
1 01925U 65082 GK 67281.15062373  .00921222 +00000-0 +00000-0 0  9997
2 01925 031.9652 202.3198 0013903 271.2220 088.6797 15.73952251108703
Source of the keplerian elements: AFSPC